When you browse on this site, cookies collect data to enhance your experience and personalize the content and advertising you see.
Visit our Privacy Policy to learn more. By continuing to use the site, you agree to this use of cookies and data.
  • In Österreich
  • Länderverzeichnis
  • Für 7 Tage
  • Wassertemperatur
  • Satellitenkarten
  • Wetterkarte
  • News
  • Widgets
  • user-avatar
    Anmelden

    Stündliche Wetter Saurimo

    Heute, 16 Februar, Samstag

    Zeit Temperatur Niederschläge Wind Luftdruck Luftfeuchtigkeit
    00:00 +19°C° 0.3 mm 0 m/S 671 mmHg 93%
    01:00 +18°C° 0 mm 0 m/S 671 mmHg 94%
    02:00 +18°C° 0.6 mm 0 m/S 671 mmHg 94%
    03:00 +18°C° 0.6 mm 0 m/S 671 mmHg 95%
    04:00 +18°C° 0.6 mm 0 m/S 670 mmHg 96%
    05:00 +19°C° 0 mm 0 m/S 671 mmHg 94%
    06:00 +19°C° 0 mm 0 m/S 672 mmHg 93%
    07:00 +21°C° 0 mm 0 m/S 672 mmHg 90%
    08:00 +23°C° 0 mm 0 m/S 673 mmHg 80%
    09:00 +28°C° 0 mm 1 m/S 673 mmHg 70%
    10:00 +31°C° 0 mm 1 m/S 673 mmHg 60%
    11:00 +30°C° 0 mm 0 m/S 673 mmHg 56%
    12:00 +32°C° 0 mm 0 m/S 673 mmHg 52%
    13:00 +33°C° 0 mm 0 m/S 672 mmHg 47%
    14:00 +32°C° 0 mm 0 m/S 672 mmHg 48%
    15:00 +31°C° 0 mm 0 m/S 671 mmHg 49%
    16:00 +30°C° 0 mm 0 m/S 671 mmHg 50%
    17:00 +30°C° 0 mm 1 m/S 670 mmHg 56%
    18:00 +28°C° 0 mm 1 m/S 670 mmHg 62%
    19:00 +25°C° 0 mm 1 m/S 670 mmHg 68%
    20:00 +25°C° 0 mm 1 m/S 670 mmHg 71%
    21:00 +22°C° 0 mm 0 m/S 671 mmHg 74%
    22:00 +21°C° 0 mm 0 m/S 671 mmHg 76%
    23:00 +23°C° 0 mm 1 m/S 671 mmHg 79%

    Morgen, 17 Februar, Sonntag

    Zeit Temperatur Niederschläge Wind Luftdruck Luftfeuchtigkeit
    00:00 +22°C° 0 mm 1 m/S 670 mmHg 81%
    01:00 +22°C° 0 mm 1 m/S 670 mmHg 83%
    02:00 +22°C° 0 mm 1 m/S 670 mmHg 85%
    03:00 +21°C° 0 mm 1 m/S 670 mmHg 87%
    04:00 +21°C° 0 mm 1 m/S 670 mmHg 89%
    05:00 +20°C° 0 mm 0 m/S 670 mmHg 87%
    06:00 +20°C° 0 mm 0 m/S 671 mmHg 86%
    07:00 +21°C° 0 mm 0 m/S 671 mmHg 84%
    08:00 +23°C° 0 mm 0 m/S 671 mmHg 76%
    09:00 +28°C° 0 mm 1 m/S 672 mmHg 68%
    10:00 +31°C° 0 mm 1 m/S 673 mmHg 59%
    11:00 +32°C° 0 mm 1 m/S 672 mmHg 54%
    12:00 +32°C° 0 mm 0 m/S 672 mmHg 49%
    13:00 +34°C° 0 mm 0 m/S 672 mmHg 44%
    14:00 +32°C° 0 mm 0 m/S 671 mmHg 48%
    15:00 +33°C° 0 mm 1 m/S 670 mmHg 52%
    16:00 +31°C° 0 mm 1 m/S 669 mmHg 55%
    17:00 +29°C° 0 mm 1 m/S 669 mmHg 61%
    18:00 +27°C° 0 mm 2 m/S 669 mmHg 66%
    19:00 +25°C° 0 mm 2 m/S 669 mmHg 72%
    20:00 +24°C° 0 mm 1 m/S 669 mmHg 77%
    21:00 +23°C° 0 mm 1 m/S 670 mmHg 83%
    22:00 +22°C° 0 mm 1 m/S 670 mmHg 88%
    23:00 +22°C° 0.8 mm 1 m/S 670 mmHg 91%

    übermorgen, 18 Februar, Montag

    Zeit Temperatur Niederschläge Wind Luftdruck Luftfeuchtigkeit
    00:00 +21°C° 0.8 mm 1 m/S 670 mmHg 93%
    01:00 +21°C° 0.8 mm 1 m/S 670 mmHg 96%
    02:00 +21°C° 0.1 mm 1 m/S 670 mmHg 96%
    03:00 +21°C° 0.1 mm 1 m/S 670 mmHg 96%
    04:00 +19°C° 0.1 mm 0 m/S 669 mmHg 96%
    05:00 +21°C° 0.1 mm 1 m/S 670 mmHg 95%
    06:00 +22°C° 0.1 mm 1 m/S 670 mmHg 94%
    07:00 +22°C° 0.1 mm 1 m/S 670 mmHg 93%
    08:00 +24°C° 0.1 mm 1 m/S 671 mmHg 83%
    09:00 +27°C° 0.1 mm 2 m/S 671 mmHg 74%
    10:00 +29°C° 0.1 mm 2 m/S 672 mmHg 65%
    11:00 +29°C° 1.6 mm 2 m/S 671 mmHg 66%
    12:00 +29°C° 1.6 mm 2 m/S 670 mmHg 67%
    13:00 +29°C° 1.6 mm 3 m/S 670 mmHg 68%
    14:00 +28°C° 1.4 mm 2 m/S 669 mmHg 72%
    15:00 +28°C° 1.4 mm 2 m/S 669 mmHg 76%
    16:00 +27°C° 1.4 mm 2 m/S 668 mmHg 80%
    17:00 +26°C° 0.7 mm 2 m/S 669 mmHg 84%
    18:00 +24°C° 0.7 mm 2 m/S 669 mmHg 89%
    19:00 +21°C° 0.7 mm 2 m/S 669 mmHg 93%
    20:00 +21°C° 0 mm 2 m/S 669 mmHg 94%
    21:00 +21°C° 0 mm 2 m/S 670 mmHg 95%
    22:00 +21°C° 0 mm 2 m/S 670 mmHg 96%
    23:00 +21°C° 0 mm 2 m/S 670 mmHg 96%

    19 Februar, Dienstag

    Zeit Temperatur Niederschläge Wind Luftdruck Luftfeuchtigkeit
    00:00 +20°C° 0 mm 2 m/S 669 mmHg 96%
    01:00 +20°C° 0 mm 2 m/S 669 mmHg 96%
    02:00 +20°C° 0 mm 2 m/S 669 mmHg 96%
    03:00 +19°C° 0 mm 2 m/S 669 mmHg 96%
    04:00 +19°C° 0 mm 2 m/S 668 mmHg 96%
    05:00 +19°C° 0 mm 2 m/S 669 mmHg 95%
    06:00 +20°C° 0 mm 2 m/S 669 mmHg 94%
    07:00 +20°C° 0 mm 3 m/S 670 mmHg 93%
    08:00 +21°C° 0 mm 2 m/S 670 mmHg 87%
    09:00 +24°C° 0 mm 2 m/S 671 mmHg 82%
    10:00 +25°C° 0 mm 2 m/S 671 mmHg 76%
    11:00 +26°C° 0.7 mm 2 m/S 671 mmHg 71%
    12:00 +28°C° 0.7 mm 2 m/S 670 mmHg 66%
    13:00 +29°C° 0.7 mm 2 m/S 670 mmHg 61%
    14:00 +30°C° 0.1 mm 2 m/S 669 mmHg 57%
    15:00 +30°C° 0.1 mm 2 m/S 669 mmHg 54%
    16:00 +30°C° 0.1 mm 2 m/S 669 mmHg 51%
    17:00 +28°C° 0 mm 1 m/S 669 mmHg 58%
    18:00 +26°C° 0 mm 1 m/S 669 mmHg 65%
    19:00 +23°C° 0 mm 1 m/S 669 mmHg 72%
    20:00 +23°C° 0 mm 1 m/S 669 mmHg 74%
    21:00 +22°C° 0 mm 1 m/S 669 mmHg 76%
    22:00 +20°C° 0 mm 0 m/S 670 mmHg 78%
    23:00 +19°C° 0.2 mm 0 m/S 669 mmHg 80%

    20 Februar, Mittwoch

    Zeit Temperatur Niederschläge Wind Luftdruck Luftfeuchtigkeit
    00:00 +19°C° 0.2 mm 0 m/S 669 mmHg 82%
    01:00 +19°C° 0.2 mm 0 m/S 669 mmHg 84%
    02:00 +19°C° 0 mm 0 m/S 669 mmHg 85%
    03:00 +19°C° 0 mm 0 m/S 668 mmHg 85%
    04:00 +18°C° 0 mm 0 m/S 668 mmHg 86%
    05:00 +19°C° 0 mm 0 m/S 669 mmHg 85%
    06:00 +19°C° 0 mm 0 m/S 670 mmHg 84%
    07:00 +20°C° 0 mm 0 m/S 670 mmHg 83%
    08:00 +22°C° 0 mm 0 m/S 671 mmHg 77%
    09:00 +25°C° 0 mm 0 m/S 671 mmHg 70%
    10:00 +27°C° 0 mm 0 m/S 672 mmHg 63%
    11:00 +28°C° 0 mm 0 m/S 672 mmHg 58%
    12:00 +31°C° 0 mm 1 m/S 671 mmHg 53%
    13:00 +32°C° 0 mm 1 m/S 671 mmHg 48%
    14:00 +31°C° 0 mm 1 m/S 670 mmHg 51%
    15:00 +31°C° 0 mm 1 m/S 670 mmHg 54%
    16:00 +30°C° 0 mm 2 m/S 669 mmHg 58%
    17:00 +28°C° 0 mm 1 m/S 670 mmHg 63%
    18:00 +26°C° 0 mm 1 m/S 670 mmHg 68%
    19:00 +25°C° 0 mm 1 m/S 670 mmHg 74%
    20:00 +24°C° 0 mm 1 m/S 670 mmHg 76%
    21:00 +23°C° 0 mm 1 m/S 670 mmHg 79%
    22:00 +21°C° 0 mm 0 m/S 671 mmHg 81%
    23:00 +20°C° 0.9 mm 0 m/S 670 mmHg 85%

    21 Februar, Donnerstag

    Zeit Temperatur Niederschläge Wind Luftdruck Luftfeuchtigkeit
    00:00 +22°C° 0.9 mm 1 m/S 670 mmHg 88%
    01:00 +21°C° 0.9 mm 1 m/S 669 mmHg 92%
    02:00 +21°C° 0.5 mm 1 m/S 669 mmHg 93%
    03:00 +21°C° 0.5 mm 1 m/S 669 mmHg 94%
    04:00 +21°C° 0.5 mm 1 m/S 669 mmHg 96%
    05:00 +21°C° 0 mm 1 m/S 670 mmHg 94%
    06:00 +22°C° 0 mm 1 m/S 670 mmHg 93%
    07:00 +22°C° 0 mm 1 m/S 671 mmHg 92%
    08:00 +25°C° 0 mm 1 m/S 671 mmHg 81%
    09:00 +28°C° 0 mm 1 m/S 672 mmHg 69%
    10:00 +30°C° 0 mm 1 m/S 672 mmHg 58%
    11:00 +32°C° 0.3 mm 1 m/S 672 mmHg 54%
    12:00 +33°C° 0.3 mm 1 m/S 671 mmHg 49%
    13:00 +33°C° 0.3 mm 0 m/S 671 mmHg 45%
    14:00 +33°C° 0 mm 1 m/S 671 mmHg 49%
    15:00 +32°C° 0 mm 1 m/S 670 mmHg 53%
    16:00 +31°C° 0 mm 2 m/S 670 mmHg 58%
    17:00 +28°C° 0.2 mm 2 m/S 670 mmHg 67%
    18:00 +26°C° 0.2 mm 2 m/S 670 mmHg 75%
    19:00 +24°C° 0.2 mm 2 m/S 669 mmHg 84%
    20:00 +23°C° 0 mm 2 m/S 670 mmHg 87%
    21:00 +23°C° 0 mm 2 m/S 670 mmHg 89%
    22:00 +22°C° 0 mm 1 m/S 670 mmHg 92%
    23:00 +22°C° 0.5 mm 1 m/S 670 mmHg 93%
    Mehr zeigen